Satellite-Ground Cal/Val Region Overpasses Predictions

Prediction of Satellite NPP Overpassing Cal/Val Region: PacNW

Region Location: (Latitude: 10.00, Longitude: 139.50) to (Latitude: 22.70, Longitude: 165.60).

Table of predicted overpasses for the next 14.0 days since TLE Epoch: 2/12/2022
Interval Starting Time Starting Location Ending Time Ending Location
1 02/12/2022 03:36:33 ( 10.05, 145.65) 02/12/2022 03:40:08 ( 22.68, 142.65)
2 02/12/2022 14:30:06 ( 11.53, 165.60) 02/12/2022 14:30:32 ( 10.00, 165.25)
3 02/12/2022 16:08:26 ( 22.68, 142.88) 02/12/2022 16:12:01 ( 10.06, 139.88)
4 02/13/2022 03:17:32 ( 10.06, 150.40) 02/13/2022 03:21:07 ( 22.68, 147.40)
5 02/13/2022 15:49:25 ( 22.67, 147.64) 02/13/2022 15:53:00 ( 10.05, 144.64)
6 02/14/2022 02:58:30 ( 10.00, 155.17) 02/14/2022 03:02:06 ( 22.69, 152.16)
7 02/14/2022 15:30:23 ( 22.67, 152.39) 02/14/2022 15:33:58 ( 10.05, 149.39)
8 02/15/2022 02:39:28 ( 10.01, 159.92) 02/15/2022 02:43:04 ( 22.69, 156.91)
9 02/15/2022 15:11:22 ( 22.66, 157.15) 02/15/2022 15:14:57 ( 10.04, 154.15)
10 02/16/2022 02:20:27 ( 10.02, 164.68) 02/16/2022 02:24:03 ( 22.70, 161.66)
11 02/16/2022 14:52:20 ( 22.65, 161.90) 02/16/2022 14:55:55 ( 10.03, 158.90)
12 02/17/2022 03:42:55 ( 10.03, 144.06) 02/17/2022 03:46:30 ( 22.65, 141.06)
13 02/17/2022 14:34:33 ( 18.31, 165.59) 02/17/2022 14:36:54 ( 10.03, 163.65)
14 02/17/2022 16:14:49 ( 22.64, 141.28) 02/17/2022 16:16:54 ( 15.31, 139.50)
15 02/18/2022 03:23:54 ( 10.04, 148.81) 02/18/2022 03:27:29 ( 22.66, 145.81)
16 02/18/2022 15:55:46 ( 22.69, 146.05) 02/18/2022 15:59:22 ( 10.01, 143.03)
17 02/19/2022 03:04:52 ( 10.05, 153.56) 02/19/2022 03:08:27 ( 22.67, 150.56)
18 02/19/2022 15:36:45 ( 22.68, 150.80) 02/19/2022 15:40:21 ( 10.01, 147.79)
19 02/20/2022 02:45:51 ( 10.06, 158.32) 02/20/2022 02:49:26 ( 22.68, 155.32)
20 02/20/2022 15:17:43 ( 22.67, 155.55) 02/20/2022 15:21:18 ( 10.05, 152.55)
21 02/21/2022 02:26:48 ( 10.01, 163.09) 02/21/2022 02:30:24 ( 22.69, 160.07)
22 02/21/2022 14:58:42 ( 22.66, 160.31) 02/21/2022 15:02:17 ( 10.04, 157.31)
23 02/22/2022 02:10:30 ( 19.59, 165.59) 02/22/2022 02:11:22 ( 22.64, 164.84)
24 02/22/2022 03:49:17 ( 10.02, 142.46) 02/22/2022 03:52:49 ( 22.47, 139.51)
25 02/22/2022 14:39:41 ( 22.65, 165.06) 02/22/2022 14:43:16 ( 10.03, 162.06)
26 02/22/2022 16:21:11 ( 22.65, 139.69) 02/22/2022 16:21:23 ( 21.95, 139.51)
27 02/23/2022 03:30:15 ( 10.04, 147.22) 02/23/2022 03:33:50 ( 22.66, 144.22)
28 02/23/2022 16:02:08 ( 22.70, 144.45) 02/23/2022 16:05:44 ( 10.02, 141.44)
29 02/24/2022 03:11:14 ( 10.05, 151.97) 02/24/2022 03:14:49 ( 22.67, 148.97)
30 02/24/2022 15:43:07 ( 22.68, 149.21) 02/24/2022 15:46:43 ( 10.01, 146.19)
31 02/25/2022 02:52:11 ( 10.00, 156.74) 02/25/2022 02:55:47 ( 22.68, 153.72)
